DW6352 Weather Reports


time (UTC)temp
C
wind
direction
speed
KPH
gust
KPH
rain 1hr
cm
rain 24hr
cm
rain mn
cm
humidity
%
barometer
mb
20260504044542 12 167 9.7 19.3 0.00 0.00 0.00 44 999.0
20260504043044 12 189 8.0 19.3 0.00 0.00 0.00 44 999.4
20260504041537 11 169 8.0 14.5 0.00 0.00 0.00 46 999.7
20260504040039 11 175 8.0 16.1 0.00 0.00 0.00 47 1000.1
20260504034536 10 173 6.4 9.7 0.00 0.00 0.00 49 1000.4
20260504033037 10 172 6.4 9.7 0.00 0.00 0.00 48 1000.8
20260504031528 11 184 4.8 8.0 0.00 0.00 0.00 48 1001.1
20260504030027 11 188 3.2 8.0 0.00 0.00 0.00 47 1001.5
20260504024525 12 236 3.2 6.4 0.00 0.00 0.00 44 1001.7
20260504023024 12 236 3.2 4.8 0.00 0.00 0.00 41 1001.7
20260504021522 13 236 3.2 4.8 0.00 0.00 0.00 38 1001.8
20260504020021 15 236 1.6 4.8 0.00 0.00 0.00 34 1002.0
20260504014522 16 241 1.6 6.4 0.00 0.00 0.00 31 1002.0
20260504013031 17 208 1.6 8.0 0.00 0.00 0.00 28 1002.0
20260504011520 17 240 3.2 8.0 0.00 0.00 0.00 27 1001.9
20260504010019 18 260 4.8 14.5 0.00 0.00 0.00 26 1002.1
20260504004518 18 264 8.0 20.9 0.00 0.00 0.00 26 1002.1
20260504003017 19 257 8.0 20.9 0.00 0.00 0.00 25 1002.2
20260504001516 20 255 9.7 25.7 0.00 0.00 0.00 24 1002.2
20260504000040 20 283 9.7 19.3 0.00 0.00 0.00 24 1002.3
20260503234513 19 267 4.8 19.3 0.00 0.00 0.00 25 1002.5
20260503233013 19 272 11.3 20.9 0.00 0.00 0.00 24 1002.7
20260503231511 19 227 11.3 29.0 0.00 0.00 0.00 23 1002.6
20260503230015 20 279 12.9 24.1 0.00 0.00 0.00 23 1002.7
20260503224510 20 242 6.4 22.5 0.00 0.00 0.00 24 1002.8
20260503223008 20 254 11.3 20.9 0.00 0.00 0.00 22 1002.8
20260503221507 20 250 12.9 29.0 0.00 0.00 0.00 24 1003.1
20260503220006 20 281 9.7 22.5 0.00 0.00 0.00 24 1003.2
20260503214503 20 261 12.9 25.7 0.00 0.00 0.00 24 1003.3
20260503213002 19 261 9.7 24.1 0.00 0.00 0.00 26 1003.5
20260503211620 19 312 9.7 22.5 0.00 0.00 0.00 24 1003.7
20260503210101 20 273 11.3 20.9 0.00 0.00 0.00 25 1003.9
20260503204559 20 306 16.1 25.7 0.00 0.00 0.00 23 1004.0
20260503203113 19 279 16.1 33.8 0.00 0.00 0.00 23 1004.1
20260503201557 19 300 16.1 30.6 0.00 0.00 0.00 23 1004.3
20260503200056 19 333 8.0 22.5 0.00 0.00 0.00 23 1004.3
20260503194557 18 342 11.3 20.9 0.00 0.00 0.00 23 1004.4
20260503193053 18 307 11.3 22.5 0.00 0.00 0.00 23 1004.7
20260503191551 18 10 12.9 33.8 0.00 0.00 0.00 23 1004.8
20260503190051 18 308 14.5 32.2 0.00 0.00 0.00 22 1005.1
20260503184551 18 25 16.1 33.8 0.00 0.00 0.00 20 1005.2
20260503183049 18 360 22.5 38.6 0.00 0.00 0.00 20 1005.3
20260503181559 18 349 17.7 35.4 0.00 0.00 0.00 25 1005.3
20260503180047 18 317 16.1 29.0 0.00 0.00 0.00 30 1005.3
20260503174544 17 316 14.5 27.4 0.00 0.00 0.00 30 1005.6
20260503173053 17 310 16.1 35.4 0.00 0.00 0.00 27 1005.6
20260503171540 17 329 17.7 32.2 0.00 0.00 0.00 27 1005.6
20260503081540 10 167 3.2 9.7 0.00 0.00 0.00 60 1004.3
20260503071531 11 55 6.4 11.3 0.00 0.00 0.00 55 1004.8